| time (UTC) | temp F | wind direction | speed knots | gust knots | rain 1hr in | rain 24hr in | rain mn in | humidity % | barometer mb |
| 20260831183221 | 68 | 9 | 2.6 | 7.0 | 0.00 | 0.00 | 0.00 | 63 | 1013.6 |
| 20260831182809 | 68 | 326 | 2.6 | 6.1 | 0.00 | 0.00 | 0.00 | 63 | 1013.7 |
| 20260831182245 | 68 | 324 | 2.6 | 7.0 | 0.00 | 0.00 | 0.00 | 63 | 1013.9 |
| 20260831181726 | 67 | 21 | 3.5 | 7.0 | 0.00 | 0.00 | 0.00 | 64 | 1013.9 |
| 20260831181233 | 68 | 327 | 2.6 | 5.2 | 0.00 | 0.00 | 0.00 | 63 | 1013.8 |
| 20260831180720 | 67 | 298 | 1.7 | 7.8 | 0.00 | 0.00 | 0.00 | 64 | 1013.8 |
| 20260831180307 | 67 | 281 | 3.5 | 7.8 | 0.00 | 0.00 | 0.00 | 64 | 1014.1 |
| 20260831175722 | 67 | 348 | 0.9 | 6.1 | 0.00 | 0.00 | 0.00 | 66 | 1014.0 |
| 20260831175310 | 66 | 305 | 2.6 | 7.8 | 0.00 | 0.00 | 0.00 | 66 | 1014.1 |
| 20260831174724 | 66 | 313 | 2.6 | 7.8 | 0.00 | 0.00 | 0.00 | 66 | 1014.1 |
| 20260831174231 | 66 | 296 | 0.9 | 8.7 | 0.00 | 0.00 | 0.00 | 68 | 1013.9 |
| 20260831173722 | 66 | 322 | 1.7 | 8.7 | 0.00 | 0.00 | 0.00 | 67 | 1014.0 |
| 20260831173229 | 66 | 252 | 0.9 | 2.6 | 0.00 | 0.00 | 0.00 | 68 | 1014.1 |
| 20260831172736 | 65 | 30 | 1.7 | 4.3 | 0.00 | 0.00 | 0.00 | 69 | 1014.1 |
| 20260831172224 | 65 | 288 | 1.7 | 4.3 | 0.00 | 0.00 | 0.00 | 69 | 1014.1 |
| 20260831171730 | 65 | 23 | 0.9 | 3.5 | 0.00 | 0.00 | 0.00 | 70 | 1014.2 |
| 20260831171237 | 65 | 306 | 1.7 | 3.5 | 0.00 | 0.00 | 0.00 | 68 | 1014.3 |
| 20260831170804 | 65 | 68 | 0.9 | 2.6 | 0.00 | 0.00 | 0.00 | 68 | 1014.4 |
| 20260831170732 | 65 | 68 | 0.9 | 2.6 | 0.00 | 0.00 | 0.00 | 68 | 1014.4 |
| 20260831170239 | 65 | 329 | 0.9 | 2.6 | 0.00 | 0.00 | 0.00 | 67 | 1014.3 |
| 20260831165806 | 65 | 113 | 0.9 | 2.6 | 0.00 | 0.00 | 0.00 | 69 | 1014.4 |
| 20260831165735 | 65 | 113 | 0.9 | 2.6 | 0.00 | 0.00 | 0.00 | 69 | 1014.4 |
| 20260831165258 | 64 | 80 | 0.0 | 2.6 | 0.00 | 0.00 | 0.00 | 69 | 1014.2 |
| 20260831164732 | 63 | 112 | 0.9 | 3.5 | 0.00 | 0.00 | 0.00 | 70 | 1014.3 |
| 20260831164239 | 63 | 46 | 1.7 | 3.5 | 0.00 | 0.00 | 0.00 | 70 | 1014.5 |
| 20260831163726 | 63 | 33 | 0.9 | 3.5 | 0.00 | 0.00 | 0.00 | 71 | 1014.5 |
| 20260831163253 | 63 | 111 | 0.9 | 2.6 | 0.00 | 0.00 | 0.00 | 71 | 1014.5 |
| 20260831162732 | 63 | 34 | 1.7 | 2.6 | 0.00 | 0.00 | 0.00 | 71 | 1014.5 |
| 20260831162235 | 62 | 342 | 0.9 | 2.6 | 0.00 | 0.00 | 0.00 | 72 | 1014.7 |
| 20260831161721 | 62 | 42 | 0.0 | 2.6 | 0.00 | 0.00 | 0.00 | 75 | 1014.7 |
| 20260831161228 | 61 | 51 | 0.0 | 2.6 | 0.00 | 0.00 | 0.00 | 75 | 1014.9 |
| 20260831160736 | 61 | 63 | 0.9 | 2.6 | 0.00 | 0.00 | 0.00 | 76 | 1014.9 |
| 20260831160222 | 60 | 80 | 0.9 | 2.6 | 0.00 | 0.00 | 0.00 | 77 | 1014.9 |
| 20260831155729 | 60 | 35 | 0.9 | 2.6 | 0.00 | 0.00 | 0.00 | 76 | 1014.9 |
| 20260831155237 | 60 | 45 | 0.9 | 2.6 | 0.00 | 0.00 | 0.00 | 77 | 1014.9 |
| 20260831154723 | 59 | 81 | 0.9 | 3.5 | 0.00 | 0.00 | 0.00 | 78 | 1014.8 |
| 20260831154311 | 59 | 323 | 0.9 | 2.6 | 0.00 | 0.00 | 0.00 | 77 | 1014.9 |
| 20260831153726 | 59 | 59 | 0.9 | 1.7 | 0.00 | 0.00 | 0.00 | 78 | 1014.8 |
| 20260831153237 | 58 | 74 | 0.0 | 2.6 | 0.00 | 0.00 | 0.00 | 82 | 1014.9 |
| 20260831152724 | 58 | 89 | 0.9 | 1.7 | 0.00 | 0.00 | 0.00 | 82 | 1015.1 |
| 20260831152232 | 57 | 59 | 0.0 | 0.9 | 0.00 | 0.00 | 0.00 | 84 | 1015.0 |
| 20260831151738 | 57 | 34 | 0.0 | 0.0 | 0.00 | 0.00 | 0.00 | 87 | 1015.0 |
| 20260831151225 | 55 | 34 | 0.0 | 0.0 | 0.00 | 0.00 | 0.00 | 89 | 1015.1 |
| 20260831150732 | 54 | 34 | 0.0 | 0.0 | 0.00 | 0.00 | 0.00 | 91 | 1015.1 |
| 20260831150239 | 53 | 34 | 0.0 | 0.0 | 0.00 | 0.00 | 0.00 | 90 | 1015.1 |
| 20260831145726 | 53 | 34 | 0.0 | 0.0 | 0.00 | 0.00 | 0.00 | 90 | 1015.1 |
| 20260831145234 | 53 | 34 | 0.0 | 0.0 | 0.00 | 0.00 | 0.00 | 91 | 1015.0 |
| 20260831144724 | 52 | 34 | 0.0 | 0.0 | 0.00 | 0.00 | 0.00 | 92 | 1014.9 |
| 20260831144231 | 51 | 34 | 0.0 | 0.0 | 0.00 | 0.00 | 0.00 | 93 | 1014.9 |
| 20260831143738 | 51 | 34 | 0.0 | 0.0 | 0.00 | 0.00 | 0.00 | 93 | 1014.9 |
| 20260831143305 | 50 | 34 | 0.0 | 0.0 | 0.00 | 0.00 | 0.00 | 93 | 1014.9 |
| 20260831143233 | 50 | 34 | 0.0 | 0.0 | 0.00 | 0.00 | 0.00 | 93 | 1014.9 |
| 20260831142721 | 50 | 34 | 0.0 | 0.0 | 0.00 | 0.00 | 0.00 | 93 | 1015.0 |
| 20260831142309 | 50 | 34 | 0.0 | 0.0 | 0.00 | 0.00 | 0.00 | 93 | 1015.0 |
| 20260831141722 | 50 | 349 | 0.0 | 0.0 | 0.00 | 0.00 | 0.00 | 93 | 1014.9 |
| 20260831141229 | 50 | 349 | 0.0 | 0.0 | 0.00 | 0.00 | 0.00 | 93 | 1015.1 |
| 20260831140736 | 50 | 349 | 0.0 | 0.0 | 0.00 | 0.00 | 0.00 | 94 | 1015.1 |
| 20260831140223 | 49 | 349 | 0.0 | 0.0 | 0.00 | 0.00 | 0.00 | 94 | 1015.0 |
| 20260831135730 | 49 | 349 | 0.0 | 0.0 | 0.00 | 0.00 | 0.00 | 93 | 1015.1 |
| 20260831135238 | 49 | 349 | 0.0 | 0.0 | 0.00 | 0.00 | 0.00 | 93 | 1015.0 |
| 20260831134728 | 49 | 349 | 0.0 | 0.0 | 0.00 | 0.00 | 0.00 | 93 | 1015.0 |
| 20260831134234 | 49 | 349 | 0.0 | 0.0 | 0.00 | 0.00 | 0.00 | 93 | 1015.0 |
| 20260831133722 | 49 | 349 | 0.0 | 0.0 | 0.00 | 0.00 | 0.00 | 92 | 1014.9 |
| 20260831133228 | 49 | 349 | 0.0 | 0.0 | 0.00 | 0.00 | 0.00 | 92 | 1014.9 |
| 20260831132735 | 49 | 349 | 0.0 | 0.0 | 0.00 | 0.00 | 0.00 | 92 | 1014.9 |
| 20260831132306 | 49 | 349 | 0.0 | 0.0 | 0.00 | 0.00 | 0.00 | 92 | 1015.0 |
| 20260831131738 | 49 | 349 | 0.0 | 0.0 | 0.00 | 0.00 | 0.00 | 92 | 1014.9 |
| 20260831131225 | 49 | 349 | 0.0 | 0.0 | 0.00 | 0.00 | 0.00 | 92 | 1015.0 |
| 20260831130752 | 50 | 349 | 0.0 | 0.0 | 0.00 | 0.00 | 0.00 | 92 | 1015.0 |
| 20260831130307 | 50 | 349 | 0.0 | 0.0 | 0.00 | 0.00 | 0.00 | 92 | 1015.0 |
| 20260831130235 | 50 | 349 | 0.0 | 0.0 | 0.00 | 0.00 | 0.00 | 92 | 1015.0 |
| 20260831125722 | 50 | 349 | 0.0 | 0.0 | 0.00 | 0.00 | 0.00 | 93 | 1015.0 |
| 20260831125230 | 50 | 349 | 0.0 | 0.0 | 0.00 | 0.00 | 0.00 | 93 | 1015.0 |
| 20260831124736 | 50 | 349 | 0.0 | 0.0 | 0.00 | 0.00 | 0.00 | 93 | 1015.1 |
| 20260831124304 | 50 | 350 | 0.0 | 0.0 | 0.00 | 0.00 | 0.00 | 93 | 1015.0 |
| 20260831123800 | 50 | 349 | 0.0 | 0.0 | 0.00 | 0.00 | 0.00 | 93 | 1015.1 |
| 20260831123255 | 50 | 349 | 0.0 | 0.0 | 0.00 | 0.00 | 0.00 | 92 | 1015.0 |
| 20260831123223 | 50 | 349 | 0.0 | 0.0 | 0.00 | 0.00 | 0.00 | 92 | 1015.0 |
| 20260831122730 | 50 | 349 | 0.0 | 0.0 | 0.00 | 0.00 | 0.00 | 92 | 1015.1 |
| 20260831122222 | 50 | 349 | 0.0 | 0.0 | 0.00 | 0.00 | 0.00 | 92 | 1015.2 |
| 20260831121728 | 50 | 349 | 0.0 | 0.0 | 0.00 | 0.00 | 0.00 | 92 | 1015.1 |
| 20260831121235 | 50 | 349 | 0.0 | 0.0 | 0.00 | 0.00 | 0.00 | 92 | 1015.2 |
| 20260831120722 | 50 | 349 | 0.0 | 0.0 | 0.00 | 0.00 | 0.00 | 92 | 1015.3 |
| 20260831120309 | 50 | 349 | 0.0 | 0.0 | 0.00 | 0.00 | 0.00 | 92 | 1015.4 |
| 20260831120237 | 50 | 349 | 0.0 | 0.0 | 0.00 | 0.00 | 0.00 | 92 | 1015.4 |
| 20260831115725 | 50 | 349 | 0.0 | 0.0 | 0.00 | 0.00 | 0.00 | 92 | 1015.4 |
| 20260831115232 | 50 | 349 | 0.0 | 0.0 | 0.00 | 0.00 | 0.00 | 91 | 1015.5 |
| 20260831114738 | 50 | 349 | 0.0 | 0.0 | 0.00 | 0.00 | 0.00 | 92 | 1015.5 |
| 20260831114225 | 50 | 349 | 0.0 | 0.0 | 0.00 | 0.00 | 0.00 | 92 | 1015.5 |
| 20260831113732 | 50 | 349 | 0.0 | 0.0 | 0.00 | 0.00 | 0.00 | 92 | 1015.6 |
| 20260831113259 | 50 | 349 | 0.0 | 0.0 | 0.00 | 0.00 | 0.00 | 92 | 1015.6 |
| 20260831112735 | 50 | 349 | 0.0 | 0.0 | 0.00 | 0.00 | 0.00 | 91 | 1015.5 |
| 20260831112226 | 51 | 349 | 0.0 | 0.0 | 0.00 | 0.00 | 0.00 | 91 | 1015.8 |
| 20260831111752 | 51 | 349 | 0.0 | 0.0 | 0.00 | 0.00 | 0.00 | 92 | 1015.7 |
| 20260831111720 | 51 | 349 | 0.0 | 0.0 | 0.00 | 0.00 | 0.00 | 92 | 1015.7 |
| 20260831111227 | 51 | 349 | 0.0 | 0.0 | 0.00 | 0.00 | 0.00 | 92 | 1015.9 |
| 20260831110734 | 51 | 349 | 0.0 | 0.0 | 0.00 | 0.00 | 0.00 | 92 | 1015.8 |
| 20260831110221 | 51 | 349 | 0.0 | 0.0 | 0.00 | 0.00 | 0.00 | 92 | 1015.9 |
| 20260831105729 | 51 | 349 | 0.0 | 0.0 | 0.00 | 0.00 | 0.00 | 91 | 1015.9 |
| 20260831105231 | 51 | 349 | 0.0 | 0.0 | 0.00 | 0.00 | 0.00 | 91 | 1016.0 |
| 20260831104737 | 51 | 349 | 0.0 | 0.0 | 0.00 | 0.00 | 0.00 | 91 | 1015.9 |
| 20260831104224 | 51 | 349 | 0.0 | 0.0 | 0.00 | 0.00 | 0.00 | 91 | 1016.0 |
| 20260831103731 | 51 | 349 | 0.0 | 0.0 | 0.00 | 0.00 | 0.00 | 91 | 1016.1 |
| 20260831103222 | 51 | 349 | 0.0 | 0.0 | 0.00 | 0.00 | 0.00 | 91 | 1016.1 |
| 20260831102806 | 51 | 349 | 0.0 | 0.0 | 0.00 | 0.00 | 0.00 | 91 | 1016.2 |
| 20260831102227 | 51 | 349 | 0.0 | 0.0 | 0.00 | 0.00 | 0.00 | 92 | 1016.2 |
| 20260831101733 | 51 | 350 | 0.0 | 0.0 | 0.00 | 0.00 | 0.00 | 91 | 1016.1 |
| 20260831101220 | 51 | 349 | 0.0 | 0.0 | 0.00 | 0.00 | 0.00 | 91 | 1016.1 |
| 20260831100727 | 51 | 349 | 0.0 | 0.0 | 0.00 | 0.00 | 0.00 | 91 | 1016.1 |
| 20260831100234 | 51 | 349 | 0.0 | 0.0 | 0.00 | 0.00 | 0.00 | 91 | 1016.3 |
| 20260831095801 | 51 | 349 | 0.0 | 0.0 | 0.00 | 0.00 | 0.00 | 90 | 1016.2 |
| 20260831095729 | 51 | 349 | 0.0 | 0.0 | 0.00 | 0.00 | 0.00 | 90 | 1016.2 |
| 20260831095237 | 51 | 349 | 0.0 | 0.0 | 0.00 | 0.00 | 0.00 | 90 | 1016.2 |
| 20260831094803 | 51 | 349 | 0.0 | 0.0 | 0.00 | 0.00 | 0.00 | 90 | 1016.3 |
| 20260831094731 | 51 | 349 | 0.0 | 0.0 | 0.00 | 0.00 | 0.00 | 90 | 1016.3 |
| 20260831094238 | 51 | 349 | 0.0 | 0.0 | 0.00 | 0.00 | 0.00 | 90 | 1016.4 |
| 20260831093725 | 52 | 349 | 0.0 | 0.0 | 0.00 | 0.00 | 0.00 | 89 | 1016.4 |
| 20260831093253 | 52 | 349 | 0.0 | 0.0 | 0.00 | 0.00 | 0.00 | 89 | 1016.4 |
| 20260831092728 | 52 | 349 | 0.0 | 0.0 | 0.00 | 0.00 | 0.00 | 89 | 1016.5 |
| 20260831092256 | 52 | 349 | 0.0 | 0.0 | 0.00 | 0.00 | 0.00 | 89 | 1016.6 |
| 20260831092224 | 52 | 349 | 0.0 | 0.0 | 0.00 | 0.00 | 0.00 | 89 | 1016.6 |
| 20260831091730 | 52 | 349 | 0.0 | 0.0 | 0.00 | 0.00 | 0.00 | 89 | 1016.8 |
| 20260831091235 | 52 | 349 | 0.0 | 0.0 | 0.00 | 0.00 | 0.00 | 88 | 1016.6 |
| 20260831090722 | 52 | 349 | 0.0 | 0.0 | 0.00 | 0.00 | 0.00 | 88 | 1016.7 |
| 20260831090229 | 52 | 349 | 0.0 | 0.0 | 0.00 | 0.00 | 0.00 | 88 | 1016.7 |
| 20260831085736 | 53 | 349 | 0.0 | 0.0 | 0.00 | 0.00 | 0.00 | 88 | 1016.8 |
| 20260831085224 | 53 | 350 | 0.0 | 0.0 | 0.00 | 0.00 | 0.00 | 89 | 1016.7 |
| 20260831084730 | 53 | 349 | 0.0 | 0.0 | 0.00 | 0.00 | 0.00 | 88 | 1016.8 |
| 20260831084252 | 53 | 349 | 0.0 | 0.0 | 0.00 | 0.00 | 0.00 | 88 | 1016.8 |
| 20260831084220 | 53 | 349 | 0.0 | 0.0 | 0.00 | 0.00 | 0.00 | 88 | 1016.8 |
| 20260831083728 | 53 | 349 | 0.0 | 0.0 | 0.00 | 0.00 | 0.00 | 89 | 1016.9 |
| 20260831083255 | 53 | 349 | 0.0 | 0.0 | 0.00 | 0.00 | 0.00 | 88 | 1016.8 |
| 20260831082730 | 53 | 349 | 0.0 | 0.0 | 0.00 | 0.00 | 0.00 | 88 | 1017.0 |
| 20260831082257 | 53 | 349 | 0.0 | 0.0 | 0.00 | 0.00 | 0.00 | 87 | 1016.9 |
| 20260831082225 | 53 | 349 | 0.0 | 0.0 | 0.00 | 0.00 | 0.00 | 87 | 1016.9 |
| 20260831081731 | 53 | 349 | 0.0 | 0.0 | 0.00 | 0.00 | 0.00 | 87 | 1017.0 |
| 20260831081258 | 53 | 349 | 0.0 | 0.0 | 0.00 | 0.00 | 0.00 | 87 | 1017.0 |
| 20260831080733 | 53 | 349 | 0.0 | 0.0 | 0.00 | 0.00 | 0.00 | 87 | 1017.1 |
| 20260831080240 | 54 | 349 | 0.0 | 0.0 | 0.00 | 0.00 | 0.00 | 86 | 1017.1 |
| 20260831075725 | 54 | 349 | 0.0 | 0.0 | 0.00 | 0.00 | 0.00 | 86 | 1017.3 |
| 20260831075233 | 54 | 349 | 0.0 | 0.0 | 0.00 | 0.00 | 0.00 | 86 | 1017.2 |
| 20260831074739 | 54 | 349 | 0.0 | 0.0 | 0.00 | 0.00 | 0.00 | 86 | 1017.3 |
| 20260831074226 | 54 | 349 | 0.0 | 0.0 | 0.00 | 0.00 | 0.00 | 86 | 1017.4 |
| 20260831073753 | 54 | 349 | 0.0 | 0.0 | 0.00 | 0.00 | 0.00 | 85 | 1017.4 |
| 20260831073721 | 54 | 349 | 0.0 | 0.0 | 0.00 | 0.00 | 0.00 | 85 | 1017.4 |
| 20260831073228 | 55 | 349 | 0.0 | 0.0 | 0.00 | 0.00 | 0.00 | 85 | 1017.4 |
| 20260831072735 | 55 | 349 | 0.0 | 0.0 | 0.00 | 0.00 | 0.00 | 85 | 1017.3 |
| 20260831072306 | 55 | 326 | 0.0 | 0.0 | 0.00 | 0.00 | 0.00 | 85 | 1017.4 |
| 20260831071758 | 55 | 326 | 0.0 | 0.0 | 0.00 | 0.00 | 0.00 | 84 | 1017.5 |
| 20260831071726 | 55 | 326 | 0.0 | 0.0 | 0.00 | 0.00 | 0.00 | 84 | 1017.5 |
| 20260831071233 | 55 | 326 | 0.0 | 0.0 | 0.00 | 0.00 | 0.00 | 84 | 1017.5 |
| 20260831070800 | 55 | 326 | 0.0 | 0.0 | 0.00 | 0.00 | 0.00 | 82 | 1017.6 |
| 20260831070729 | 55 | 326 | 0.0 | 0.0 | 0.00 | 0.00 | 0.00 | 82 | 1017.6 |
| 20260831070235 | 56 | 326 | 0.0 | 0.0 | 0.00 | 0.00 | 0.00 | 82 | 1017.7 |
| 20260831065722 | 56 | 326 | 0.0 | 0.0 | 0.00 | 0.00 | 0.00 | 82 | 1017.7 |
| 20260831065310 | 56 | 326 | 0.0 | 0.0 | 0.00 | 0.00 | 0.00 | 82 | 1017.7 |
| 20260831065238 | 56 | 326 | 0.0 | 0.0 | 0.00 | 0.00 | 0.00 | 82 | 1017.7 |
| 20260831064724 | 56 | 309 | 0.0 | 0.0 | 0.00 | 0.00 | 0.00 | 81 | 1017.9 |
| 20260831064235 | 57 | 309 | 0.0 | 0.0 | 0.00 | 0.00 | 0.00 | 81 | 1018.0 |
| 20260831063802 | 57 | 309 | 0.0 | 0.0 | 0.00 | 0.00 | 0.00 | 81 | 1018.0 |
| 20260831063238 | 57 | 309 | 0.0 | 0.0 | 0.00 | 0.00 | 0.00 | 80 | 1018.0 |
| 20260831062805 | 57 | 309 | 0.0 | 0.0 | 0.00 | 0.00 | 0.00 | 80 | 1018.0 |
| 20260831062221 | 57 | 309 | 0.0 | 0.0 | 0.00 | 0.00 | 0.00 | 80 | 1018.1 |
| 20260831061727 | 57 | 309 | 0.0 | 0.0 | 0.00 | 0.00 | 0.00 | 79 | 1018.1 |
| 20260831061234 | 58 | 309 | 0.0 | 0.0 | 0.00 | 0.00 | 0.00 | 79 | 1018.1 |
| 20260831060801 | 58 | 309 | 0.0 | 0.0 | 0.00 | 0.00 | 0.00 | 79 | 1018.1 |
| 20260831060730 | 58 | 309 | 0.0 | 0.0 | 0.00 | 0.00 | 0.00 | 79 | 1018.1 |
| 20260831060236 | 58 | 309 | 0.0 | 0.0 | 0.00 | 0.00 | 0.00 | 78 | 1018.2 |
| 20260831055803 | 58 | 309 | 0.0 | 0.0 | 0.00 | 0.00 | 0.00 | 78 | 1018.3 |
| 20260831055731 | 58 | 309 | 0.0 | 0.0 | 0.00 | 0.00 | 0.00 | 78 | 1018.3 |
| 20260831055239 | 58 | 309 | 0.0 | 0.0 | 0.00 | 0.00 | 0.00 | 79 | 1018.3 |
| 20260831054725 | 59 | 309 | 0.0 | 0.0 | 0.00 | 0.00 | 0.00 | 78 | 1018.4 |
| 20260831054232 | 59 | 309 | 0.0 | 0.0 | 0.00 | 0.00 | 0.00 | 78 | 1018.4 |
| 20260831053739 | 59 | 309 | 0.0 | 0.0 | 0.00 | 0.00 | 0.00 | 75 | 1018.4 |
| 20260831053230 | 59 | 309 | 0.0 | 0.0 | 0.00 | 0.00 | 0.00 | 75 | 1018.5 |
| 20260831052737 | 59 | 309 | 0.0 | 0.0 | 0.00 | 0.00 | 0.00 | 75 | 1018.6 |
| 20260831052307 | 59 | 309 | 0.0 | 0.0 | 0.00 | 0.00 | 0.00 | 75 | 1018.6 |
| 20260831051739 | 59 | 309 | 0.0 | 0.0 | 0.00 | 0.00 | 0.00 | 75 | 1018.6 |
| 20260831051306 | 59 | 309 | 0.0 | 0.0 | 0.00 | 0.00 | 0.00 | 75 | 1018.6 |
| 20260831050721 | 60 | 309 | 0.0 | 0.0 | 0.00 | 0.00 | 0.00 | 75 | 1018.6 |
| 20260831050228 | 60 | 309 | 0.0 | 0.0 | 0.00 | 0.00 | 0.00 | 75 | 1018.8 |
| 20260831045735 | 60 | 309 | 0.0 | 0.0 | 0.00 | 0.00 | 0.00 | 74 | 1018.7 |
| 20260831045306 | 60 | 309 | 0.0 | 0.0 | 0.00 | 0.00 | 0.00 | 73 | 1018.7 |
| 20260831044737 | 61 | 309 | 0.0 | 0.0 | 0.00 | 0.00 | 0.00 | 72 | 1018.8 |
| 20260831044225 | 61 | 309 | 0.0 | 0.0 | 0.00 | 0.00 | 0.00 | 72 | 1018.7 |
| 20260831043731 | 61 | 309 | 0.0 | 0.0 | 0.00 | 0.00 | 0.00 | 71 | 1018.8 |
| 20260831043238 | 61 | 309 | 0.0 | 0.0 | 0.00 | 0.00 | 0.00 | 71 | 1018.7 |
| 20260831042729 | 61 | 309 | 0.0 | 0.0 | 0.00 | 0.00 | 0.00 | 71 | 1018.7 |
| 20260831042236 | 62 | 309 | 0.0 | 0.0 | 0.00 | 0.00 | 0.00 | 71 | 1018.8 |
| 20260831041722 | 62 | 309 | 0.0 | 0.0 | 0.00 | 0.00 | 0.00 | 69 | 1018.6 |
| 20260831041310 | 62 | 309 | 0.0 | 0.0 | 0.00 | 0.00 | 0.00 | 68 | 1018.8 |
| 20260831040725 | 63 | 309 | 0.0 | 0.0 | 0.00 | 0.00 | 0.00 | 68 | 1018.8 |
| 20260831040232 | 63 | 309 | 0.0 | 0.0 | 0.00 | 0.00 | 0.00 | 67 | 1018.8 |
| 20260831035739 | 63 | 309 | 0.0 | 0.0 | 0.00 | 0.00 | 0.00 | 66 | 1018.8 |
| 20260831035227 | 63 | 304 | 0.0 | 0.0 | 0.00 | 0.00 | 0.00 | 65 | 1018.9 |
| 20260831034753 | 64 | 304 | 0.0 | 0.0 | 0.00 | 0.00 | 0.00 | 64 | 1018.9 |
| 20260831034721 | 64 | 304 | 0.0 | 0.0 | 0.00 | 0.00 | 0.00 | 64 | 1018.9 |
| 20260831034230 | 64 | 304 | 0.0 | 1.7 | 0.00 | 0.00 | 0.00 | 63 | 1018.8 |
| 20260831033756 | 64 | 302 | 0.0 | 1.7 | 0.00 | 0.00 | 0.00 | 63 | 1018.8 |
| 20260831033231 | 64 | 302 | 0.0 | 1.7 | 0.00 | 0.00 | 0.00 | 63 | 1018.8 |
| 20260831032737 | 64 | 292 | 0.0 | 1.7 | 0.00 | 0.00 | 0.00 | 62 | 1018.6 |
| 20260831032300 | 64 | 292 | 0.0 | 1.7 | 0.00 | 0.00 | 0.00 | 62 | 1018.6 |
| 20260831031754 | 65 | 311 | 0.0 | 0.0 | 0.00 | 0.00 | 0.00 | 62 | 1018.6 |
| 20260831031722 | 65 | 311 | 0.0 | 0.0 | 0.00 | 0.00 | 0.00 | 62 | 1018.6 |
| 20260831031309 | 65 | 311 | 0.0 | 0.9 | 0.00 | 0.00 | 0.00 | 62 | 1018.6 |
| 20260831030724 | 65 | 311 | 0.0 | 1.7 | 0.00 | 0.00 | 0.00 | 60 | 1018.6 |
| 20260831030235 | 65 | 304 | 0.9 | 1.7 | 0.00 | 0.00 | 0.00 | 60 | 1018.7 |
| 20260831025722 | 66 | 293 | 0.0 | 1.7 | 0.00 | 0.00 | 0.00 | 60 | 1018.6 |
| 20260831025230 | 66 | 292 | 0.9 | 1.7 | 0.00 | 0.00 | 0.00 | 59 | 1018.7 |
| 20260831024736 | 66 | 323 | 0.0 | 2.6 | 0.00 | 0.00 | 0.00 | 59 | 1018.7 |
| 20260831024223 | 67 | 333 | 0.0 | 4.3 | 0.00 | 0.00 | 0.00 | 59 | 1018.8 |
| 20260831023730 | 67 | 316 | 1.7 | 4.3 | 0.00 | 0.00 | 0.00 | 58 | 1018.9 |
| 20260831023257 | 67 | 317 | 0.9 | 3.5 | 0.00 | 0.00 | 0.00 | 58 | 1018.8 |
| 20260831022753 | 67 | 292 | 1.7 | 3.5 | 0.00 | 0.00 | 0.00 | 57 | 1018.8 |
| 20260831022309 | 68 | 313 | 0.9 | 2.6 | 0.00 | 0.00 | 0.00 | 57 | 1018.9 |
| 20260831022238 | 68 | 313 | 0.9 | 2.6 | 0.00 | 0.00 | 0.00 | 57 | 1018.9 |
| 20260831021723 | 68 | 349 | 0.9 | 3.5 | 0.00 | 0.00 | 0.00 | 56 | 1018.9 |
| 20260831021230 | 68 | 288 | 1.7 | 3.5 | 0.00 | 0.00 | 0.00 | 54 | 1018.8 |
| 20260831020737 | 69 | 294 | 1.7 | 3.5 | 0.00 | 0.00 | 0.00 | 53 | 1019.1 |
| 20260831020305 | 70 | 305 | 0.0 | 1.7 | 0.00 | 0.00 | 0.00 | 53 | 1019.0 |
| 20260831015720 | 70 | 324 | 0.0 | 3.5 | 0.00 | 0.00 | 0.00 | 52 | 1019.1 |
| 20260831015232 | 70 | 336 | 0.9 | 3.5 | 0.00 | 0.00 | 0.00 | 51 | 1019.0 |
| 20260831014738 | 71 | 304 | 0.0 | 1.7 | 0.00 | 0.00 | 0.00 | 51 | 1019.1 |
| 20260831014225 | 71 | 327 | 0.0 | 1.7 | 0.00 | 0.00 | 0.00 | 51 | 1019.2 |
| 20260831013732 | 70 | 264 | 0.9 | 1.7 | 0.00 | 0.00 | 0.00 | 50 | 1019.2 |
| 20260831013239 | 71 | 320 | 0.0 | 2.6 | 0.00 | 0.00 | 0.00 | 50 | 1019.3 |
| 20260831012806 | 71 | 265 | 1.7 | 2.6 | 0.00 | 0.00 | 0.00 | 49 | 1019.4 |
| 20260831012734 | 71 | 265 | 1.7 | 2.6 | 0.00 | 0.00 | 0.00 | 49 | 1019.4 |
| 20260831012222 | 71 | 316 | 0.0 | 1.7 | 0.00 | 0.00 | 0.00 | 50 | 1019.4 |
| 20260831011728 | 71 | 318 | 0.9 | 4.3 | 0.00 | 0.00 | 0.00 | 49 | 1019.3 |
| 20260831011235 | 71 | 306 | 1.7 | 4.3 | 0.00 | 0.00 | 0.00 | 49 | 1019.3 |
| 20260831010722 | 72 | 266 | 0.9 | 2.6 | 0.00 | 0.00 | 0.00 | 49 | 1019.4 |
| 20260831010310 | 72 | 334 | 0.9 | 2.6 | 0.00 | 0.00 | 0.00 | 49 | 1019.5 |
| 20260831005725 | 72 | 332 | 0.9 | 3.5 | 0.00 | 0.00 | 0.00 | 50 | 1019.5 |
| 20260831005254 | 71 | 276 | 1.7 | 3.5 | 0.00 | 0.00 | 0.00 | 50 | 1019.5 |
| 20260831004732 | 71 | 296 | 0.9 | 5.2 | 0.00 | 0.00 | 0.00 | 50 | 1019.5 |
| 20260831004239 | 71 | 339 | 2.6 | 5.2 | 0.00 | 0.00 | 0.00 | 51 | 1019.6 |
| 20260831003721 | 72 | 252 | 1.7 | 3.5 | 0.00 | 0.00 | 0.00 | 50 | 1019.7 |
| 20260831003228 | 72 | 340 | 0.9 | 1.7 | 0.00 | 0.00 | 0.00 | 50 | 1019.7 |
| 20260831002735 | 71 | 50 | 0.0 | 2.6 | 0.00 | 0.00 | 0.00 | 51 | 1019.7 |
| 20260831002223 | 71 | 93 | 0.0 | 3.5 | 0.00 | 0.00 | 0.00 | 51 | 1019.8 |
| 20260831001729 | 71 | 252 | 2.6 | 3.5 | 0.00 | 0.00 | 0.00 | 51 | 1019.7 |
| 20260831001236 | 72 | 37 | 0.9 | 3.5 | 0.00 | 0.00 | 0.00 | 51 | 1019.8 |
| 20260831000738 | 71 | 355 | 0.9 | 3.5 | 0.00 | 0.00 | 0.00 | 51 | 1019.7 |
| 20260831000226 | 71 | 271 | 0.9 | 2.6 | 0.00 | 0.00 | 0.00 | 51 | 1019.9 |
| 20260830235735 | 71 | 302 | 0.9 | 3.5 | 0.00 | 0.00 | 0.00 | 53 | 1020.0 |
| 20260830235305 | 70 | 304 | 1.7 | 3.5 | 0.00 | 0.00 | 0.00 | 53 | 1019.9 |
| 20260830234738 | 70 | 277 | 0.9 | 1.7 | 0.00 | 0.00 | 0.00 | 54 | 1019.9 |
| 20260830234226 | 69 | 144 | 0.9 | 1.7 | 0.00 | 0.00 | 0.00 | 55 | 1020.0 |
| 20260830233732 | 69 | 191 | 0.0 | 1.7 | 0.00 | 0.00 | 0.00 | 56 | 1020.2 |
| 20260830233220 | 69 | 153 | 0.0 | 1.7 | 0.00 | 0.00 | 0.00 | 58 | 1020.2 |
| 20260830232727 | 69 | 121 | 0.9 | 1.7 | 0.00 | 0.00 | 0.00 | 54 | 1020.2 |
| 20260830232255 | 69 | 167 | 0.0 | 0.9 | 0.00 | 0.00 | 0.00 | 55 | 1020.1 |
| 20260830232223 | 69 | 167 | 0.0 | 0.9 | 0.00 | 0.00 | 0.00 | 55 | 1020.1 |
| 20260830231729 | 69 | 186 | 0.0 | 1.7 | 0.00 | 0.00 | 0.00 | 56 | 1020.1 |
| 20260830231236 | 70 | 273 | 0.9 | 1.7 | 0.00 | 0.00 | 0.00 | 55 | 1020.1 |
| 20260830230804 | 70 | 115 | 0.9 | 3.5 | 0.00 | 0.00 | 0.00 | 54 | 1020.2 |
| 20260830230239 | 70 | 136 | 1.7 | 3.5 | 0.00 | 0.00 | 0.00 | 53 | 1020.2 |
| 20260830225806 | 71 | 40 | 0.9 | 2.6 | 0.00 | 0.00 | 0.00 | 55 | 1020.1 |
| 20260830225734 | 71 | 40 | 0.9 | 2.6 | 0.00 | 0.00 | 0.00 | 55 | 1020.1 |
| 20260830225222 | 70 | 306 | 0.9 | 2.6 | 0.00 | 0.00 | 0.00 | 56 | 1020.2 |
| 20260830224732 | 70 | 38 | 0.9 | 4.3 | 0.00 | 0.00 | 0.00 | 56 | 1020.3 |
| 20260830224239 | 69 | 346 | 2.6 | 4.3 | 0.00 | 0.00 | 0.00 | 56 | 1020.4 |
| 20260830223806 | 69 | 52 | 0.9 | 5.2 | 0.00 | 0.00 | 0.00 | 56 | 1020.4 |
| 20260830223302 | 69 | 69 | 0.9 | 5.2 | 0.00 | 0.00 | 0.00 | 57 | 1020.5 |
| 20260830223230 | 69 | 69 | 0.9 | 5.2 | 0.00 | 0.00 | 0.00 | 57 | 1020.5 |
| 20260830222737 | 69 | 350 | 2.6 | 6.1 | 0.00 | 0.00 | 0.00 | 57 | 1020.6 |
| 20260830222306 | 69 | 251 | 1.7 | 5.2 | 0.00 | 0.00 | 0.00 | 56 | 1020.6 |
| 20260830222233 | 69 | 251 | 1.7 | 5.2 | 0.00 | 0.00 | 0.00 | 56 | 1020.6 |
| 20260830221759 | 69 | 251 | 0.9 | 1.7 | 0.00 | 0.00 | 0.00 | 55 | 1020.6 |
| 20260830221727 | 69 | 251 | 0.9 | 1.7 | 0.00 | 0.00 | 0.00 | 55 | 1020.6 |
| 20260830221234 | 69 | 217 | 0.0 | 1.7 | 0.00 | 0.00 | 0.00 | 55 | 1020.7 |
| 20260830220801 | 70 | 288 | 0.9 | 1.7 | 0.00 | 0.00 | 0.00 | 54 | 1020.6 |
| 20260830220236 | 70 | 292 | 0.9 | 3.5 | 0.00 | 0.00 | 0.00 | 54 | 1021.0 |
| 20260830215803 | 71 | 130 | 1.7 | 4.3 | 0.00 | 0.00 | 0.00 | 53 | 1020.7 |
| 20260830215731 | 71 | 130 | 1.7 | 4.3 | 0.00 | 0.00 | 0.00 | 53 | 1020.7 |
| 20260830215239 | 71 | 88 | 0.9 | 5.2 | 0.00 | 0.00 | 0.00 | 52 | 1020.9 |
| 20260830214725 | 71 | 143 | 1.7 | 7.0 | 0.00 | 0.00 | 0.00 | 51 | 1020.9 |
| 20260830214232 | 72 | 336 | 1.7 | 7.0 | 0.00 | 0.00 | 0.00 | 50 | 1020.9 |
| 20260830213739 | 72 | 136 | 0.9 | 3.5 | 0.00 | 0.00 | 0.00 | 54 | 1020.9 |
| 20260830213306 | 71 | 9 | 1.7 | 4.3 | 0.00 | 0.00 | 0.00 | 54 | 1021.0 |
| 20260830212721 | 70 | 276 | 1.7 | 4.3 | 0.00 | 0.00 | 0.00 | 54 | 1021.0 |
| 20260830212229 | 70 | 313 | 1.7 | 5.2 | 0.00 | 0.00 | 0.00 | 53 | 1020.9 |
| 20260830211739 | 69 | 263 | 2.6 | 5.2 | 0.00 | 0.00 | 0.00 | 53 | 1021.0 |
| 20260830211226 | 69 | 169 | 1.7 | 3.5 | 0.00 | 0.00 | 0.00 | 53 | 1021.2 |
| 20260830210733 | 70 | 265 | 0.9 | 3.5 | 0.00 | 0.00 | 0.00 | 55 | 1021.2 |
| 20260830210220 | 69 | 177 | 1.7 | 3.5 | 0.00 | 0.00 | 0.00 | 55 | 1021.5 |
| 20260830205727 | 69 | 351 | 0.9 | 3.5 | 0.00 | 0.00 | 0.00 | 57 | 1021.5 |
| 20260830205235 | 69 | 137 | 1.7 | 3.5 | 0.00 | 0.00 | 0.00 | 55 | 1021.5 |
| 20260830204721 | 68 | 121 | 0.9 | 3.5 | 0.00 | 0.00 | 0.00 | 57 | 1021.3 |
| 20260830204309 | 68 | 279 | 1.7 | 3.5 | 0.00 | 0.00 | 0.00 | 59 | 1021.4 |
| 20260830203805 | 67 | 88 | 1.7 | 5.2 | 0.00 | 0.00 | 0.00 | 59 | 1021.4 |
| 20260830203301 | 68 | 132 | 3.5 | 5.2 | 0.00 | 0.00 | 0.00 | 58 | 1021.4 |
| 20260830202736 | 67 | 313 | 1.7 | 7.0 | 0.00 | 0.00 | 0.00 | 59 | 1021.5 |
| 20260830202224 | 67 | 109 | 2.6 | 7.0 | 0.00 | 0.00 | 0.00 | 59 | 1021.6 |
| 20260830201730 | 68 | 274 | 3.5 | 6.1 | 0.00 | 0.00 | 0.00 | 58 | 1021.5 |
| 20260830201221 | 68 | 194 | 0.9 | 3.5 | 0.00 | 0.00 | 0.00 | 60 | 1021.5 |
| 20260830200728 | 67 | 17 | 1.7 | 7.0 | 0.00 | 0.00 | 0.00 | 61 | 1021.5 |
| 20260830200235 | 67 | 298 | 1.7 | 7.0 | 0.00 | 0.00 | 0.00 | 61 | 1021.5 |
| 20260830195722 | 67 | 49 | 1.7 | 5.2 | 0.00 | 0.00 | 0.00 | 62 | 1021.6 |
| 20260830195311 | 66 | 300 | 2.6 | 6.1 | 0.00 | 0.00 | 0.00 | 61 | 1021.6 |
| 20260830194725 | 66 | 236 | 2.6 | 6.1 | 0.00 | 0.00 | 0.00 | 62 | 1021.5 |
| 20260830194232 | 66 | 251 | 1.7 | 5.2 | 0.00 | 0.00 | 0.00 | 63 | 1021.7 |
| 20260830193739 | 66 | 261 | 2.6 | 6.1 | 0.00 | 0.00 | 0.00 | 63 | 1021.7 |
| 20260830193226 | 66 | 279 | 1.7 | 3.5 | 0.00 | 0.00 | 0.00 | 61 | 1021.7 |
| 20260830192733 | 66 | 234 | 0.9 | 2.6 | 0.00 | 0.00 | 0.00 | 61 | 1021.6 |
| 20260830192225 | 66 | 360 | 0.9 | 2.6 | 0.00 | 0.00 | 0.00 | 62 | 1021.6 |
| 20260830191731 | 66 | 105 | 0.0 | 3.5 | 0.00 | 0.00 | 0.00 | 62 | 1021.6 |
| 20260830191238 | 65 | 303 | 0.9 | 3.5 | 0.00 | 0.00 | 0.00 | 64 | 1021.6 |
| 20260830190725 | 65 | 327 | 0.9 | 3.5 | 0.00 | 0.00 | 0.00 | 63 | 1021.6 |
| 20260830190232 | 65 | 350 | 1.7 | 3.5 | 0.00 | 0.00 | 0.00 | 64 | 1021.4 |
| 20260830185739 | 64 | 107 | 0.9 | 2.6 | 0.00 | 0.00 | 0.00 | 66 | 1021.6 |
| 20260830185227 | 63 | 92 | 1.7 | 2.6 | 0.00 | 0.00 | 0.00 | 65 | 1021.7 |
| 20260830184733 | 63 | 108 | 0.9 | 5.2 | 0.00 | 0.00 | 0.00 | 66 | 1021.8 |
| 20260830184220 | 63 | 101 | 2.6 | 5.2 | 0.00 | 0.00 | 0.00 | 65 | 1021.7 |
| 20260830183807 | 63 | 169 | 0.9 | 5.2 | 0.00 | 0.00 | 0.00 | 64 | 1021.7 |